When you browse on this site, cookies collect data to enhance your experience and personalize the content and advertising you see.
Visit our Privacy Policy to learn more. By continuing to use the site, you agree to this use of cookies and data.
  • In Sweden
  • List of Countries
  • For 7 days
  • Water Temperature
  • Satellite Maps
  • Weather Map
  • Weather Widgets
  • user-avatar
    Login

    Hourly Weather Unino

    Today, 23 March, Saturday

    Time Temperature Precipitation Wind Pressure Humidity
    00:00 -2°C° 0 mm 5 mps 757 mmHg 81%
    01:00 -2°C° 0 mm 4 mps 758 mmHg 83%
    02:00 -2°C° 0 mm 4 mps 758 mmHg 86%
    03:00 -3°C° 0 mm 4 mps 758 mmHg 86%
    04:00 -3°C° 0 mm 4 mps 758 mmHg 87%
    05:00 -2°C° 0 mm 3 mps 759 mmHg 87%
    06:00 -1°C° 0 mm 3 mps 759 mmHg 87%
    07:00 -1°C° 0 mm 2 mps 759 mmHg 86%
    08:00 -1°C° 0 mm 2 mps 759 mmHg 86%
    09:00 +2°C° 0 mm 1 mps 759 mmHg 80%
    10:00 +4°C° 0 mm 1 mps 759 mmHg 74%
    11:00 +4°C° 0 mm 0 mps 759 mmHg 67%
    12:00 +6°C° 0 mm 1 mps 759 mmHg 64%
    13:00 +7°C° 0 mm 1 mps 758 mmHg 61%
    14:00 +6°C° 0 mm 2 mps 758 mmHg 58%
    15:00 +6°C° 0 mm 2 mps 757 mmHg 60%
    16:00 +6°C° 0 mm 2 mps 756 mmHg 62%
    17:00 +6°C° 0 mm 2 mps 756 mmHg 64%
    18:00 +5°C° 0 mm 2 mps 755 mmHg 65%
    19:00 +3°C° 0 mm 3 mps 755 mmHg 67%
    20:00 +2°C° 0 mm 3 mps 754 mmHg 69%
    21:00 +2°C° 0.3 mm 3 mps 754 mmHg 67%
    22:00 +3°C° 0.3 mm 4 mps 753 mmHg 65%
    23:00 +3°C° 0.3 mm 4 mps 752 mmHg 64%

    Tomorrow, 24 March, Sunday

    Time Temperature Precipitation Wind Pressure Humidity
    00:00 +3°C° 0.3 mm 4 mps 752 mmHg 69%
    01:00 +3°C° 0.3 mm 3 mps 751 mmHg 75%
    02:00 +2°C° 0.3 mm 3 mps 751 mmHg 81%
    03:00 +2°C° 0 mm 3 mps 751 mmHg 85%
    04:00 +2°C° 0 mm 3 mps 750 mmHg 89%
    05:00 +1°C° 0 mm 3 mps 750 mmHg 94%
    06:00 +1°C° 0 mm 3 mps 750 mmHg 89%
    07:00 +1°C° 0 mm 4 mps 750 mmHg 84%
    08:00 +1°C° 0 mm 4 mps 750 mmHg 80%
    09:00 +3°C° 0 mm 4 mps 750 mmHg 72%
    10:00 +3°C° 0 mm 5 mps 750 mmHg 64%
    11:00 +5°C° 0 mm 5 mps 750 mmHg 55%
    12:00 +5°C° 0 mm 5 mps 750 mmHg 52%
    13:00 +5°C° 0 mm 5 mps 750 mmHg 49%
    14:00 +6°C° 0 mm 5 mps 750 mmHg 46%
    15:00 +5°C° 0 mm 4 mps 750 mmHg 48%
    16:00 +5°C° 0 mm 4 mps 750 mmHg 51%
    17:00 +4°C° 0 mm 3 mps 749 mmHg 53%
    18:00 +3°C° 0 mm 3 mps 750 mmHg 57%
    19:00 +2°C° 0 mm 3 mps 750 mmHg 60%
    20:00 +1°C° 0 mm 3 mps 750 mmHg 64%
    21:00 0°C° 0 mm 3 mps 750 mmHg 65%
    22:00 0°C° 0 mm 3 mps 749 mmHg 67%
    23:00 -1°C° 0 mm 3 mps 749 mmHg 68%

    Day after tomorrow, 25 March, Monday

    Time Temperature Precipitation Wind Pressure Humidity
    00:00 -1°C° 0 mm 3 mps 749 mmHg 69%
    01:00 -1°C° 0 mm 3 mps 749 mmHg 70%
    02:00 -1°C° 0 mm 3 mps 748 mmHg 70%
    03:00 -1°C° 0 mm 3 mps 748 mmHg 71%
    04:00 -2°C° 0 mm 3 mps 748 mmHg 72%
    05:00 -2°C° 0 mm 2 mps 748 mmHg 73%
    06:00 -1°C° 0 mm 3 mps 748 mmHg 70%
    07:00 0°C° 0 mm 3 mps 747 mmHg 68%
    08:00 +1°C° 0 mm 3 mps 747 mmHg 65%
    09:00 +2°C° 0 mm 3 mps 747 mmHg 58%
    10:00 +3°C° 0 mm 3 mps 747 mmHg 50%
    11:00 +5°C° 0 mm 3 mps 747 mmHg 43%
    12:00 +5°C° 0 mm 3 mps 746 mmHg 42%
    13:00 +7°C° 0 mm 3 mps 746 mmHg 40%
    14:00 +7°C° 0 mm 3 mps 746 mmHg 39%
    15:00 +7°C° 0 mm 2 mps 746 mmHg 44%
    16:00 +6°C° 0 mm 2 mps 746 mmHg 48%
    17:00 +6°C° 0 mm 1 mps 745 mmHg 53%
    18:00 +5°C° 0 mm 1 mps 746 mmHg 58%
    19:00 +4°C° 0 mm 1 mps 746 mmHg 63%
    20:00 +1°C° 0 mm 2 mps 746 mmHg 68%
    21:00 +1°C° 0 mm 2 mps 746 mmHg 72%
    22:00 +2°C° 0 mm 1 mps 746 mmHg 75%
    23:00 +1°C° 0 mm 1 mps 746 mmHg 79%

    26 March, Tuesday

    Time Temperature Precipitation Wind Pressure Humidity
    00:00 +1°C° 0 mm 1 mps 746 mmHg 82%
    01:00 +1°C° 0 mm 1 mps 746 mmHg 85%
    02:00 +1°C° 0 mm 1 mps 746 mmHg 89%
    03:00 -1°C° 0 mm 2 mps 746 mmHg 90%
    04:00 -1°C° 0 mm 2 mps 745 mmHg 92%
    05:00 -1°C° 0 mm 2 mps 745 mmHg 94%
    06:00 -1°C° 0.5 mm 2 mps 745 mmHg 92%
    07:00 -1°C° 0.5 mm 3 mps 746 mmHg 90%
    08:00 -1°C° 0.5 mm 4 mps 746 mmHg 88%
    09:00 -1°C° 0.4 mm 4 mps 746 mmHg 82%
    10:00 -1°C° 0.4 mm 4 mps 746 mmHg 77%
    11:00 0°C° 0.4 mm 4 mps 747 mmHg 71%
    12:00 0°C° 0.1 mm 4 mps 747 mmHg 66%
    13:00 +1°C° 0.1 mm 4 mps 747 mmHg 61%
    14:00 +1°C° 0.1 mm 4 mps 747 mmHg 55%
    15:00 +2°C° 0.1 mm 3 mps 747 mmHg 57%
    16:00 +2°C° 0.1 mm 2 mps 747 mmHg 59%
    17:00 +3°C° 0.1 mm 1 mps 747 mmHg 61%
    18:00 +2°C° 0 mm 1 mps 747 mmHg 65%
    19:00 +1°C° 0 mm 1 mps 747 mmHg 69%
    20:00 0°C° 0 mm 1 mps 748 mmHg 74%
    21:00 -1°C° 0 mm 1 mps 748 mmHg 76%
    22:00 -1°C° 0 mm 1 mps 748 mmHg 78%
    23:00 -1°C° 0 mm 1 mps 748 mmHg 81%

    27 March, Wednesday

    Time Temperature Precipitation Wind Pressure Humidity
    00:00 -2°C° 0 mm 1 mps 749 mmHg 83%
    01:00 -4°C° 0 mm 2 mps 749 mmHg 85%
    02:00 -4°C° 0 mm 2 mps 749 mmHg 86%
    03:00 -4°C° 0 mm 2 mps 750 mmHg 87%
    04:00 -4°C° 0 mm 2 mps 750 mmHg 87%
    05:00 -5°C° 0 mm 2 mps 750 mmHg 88%
    06:00 -5°C° 0 mm 3 mps 751 mmHg 84%
    07:00 -4°C° 0 mm 3 mps 751 mmHg 81%
    08:00 -4°C° 0 mm 4 mps 752 mmHg 78%
    09:00 -3°C° 0.1 mm 4 mps 752 mmHg 70%
    10:00 -2°C° 0.1 mm 5 mps 753 mmHg 63%
    11:00 -2°C° 0.1 mm 5 mps 753 mmHg 55%
    12:00 -1°C° 0 mm 5 mps 753 mmHg 50%
    13:00 -1°C° 0 mm 5 mps 753 mmHg 45%
    14:00 0°C° 0 mm 5 mps 754 mmHg 40%
    15:00 -1°C° 0 mm 5 mps 754 mmHg 42%
    16:00 -1°C° 0 mm 4 mps 755 mmHg 45%
    17:00 -1°C° 0 mm 4 mps 755 mmHg 47%
    18:00 -1°C° 0 mm 3 mps 756 mmHg 53%
    19:00 -3°C° 0 mm 2 mps 756 mmHg 60%
    20:00 -4°C° 0 mm 2 mps 757 mmHg 67%
    21:00 -4°C° 0 mm 2 mps 757 mmHg 70%
    22:00 -4°C° 0 mm 2 mps 758 mmHg 72%
    23:00 -5°C° 0 mm 2 mps 758 mmHg 75%

    28 March, Thursday

    Time Temperature Precipitation Wind Pressure Humidity
    00:00 -5°C° 0 mm 2 mps 758 mmHg 75%
    01:00 -5°C° 0 mm 2 mps 759 mmHg 76%
    02:00 -5°C° 0 mm 2 mps 759 mmHg 76%
    03:00 -5°C° 0 mm 2 mps 759 mmHg 77%
    04:00 -3°C° 0 mm 1 mps 759 mmHg 77%
    05:00 -3°C° 0 mm 1 mps 759 mmHg 77%
    06:00 -4°C° 0 mm 2 mps 760 mmHg 70%
    07:00 -3°C° 0 mm 2 mps 760 mmHg 62%
    08:00 -3°C° 0 mm 2 mps 760 mmHg 55%
    09:00 -1°C° 0 mm 3 mps 760 mmHg 56%
    10:00 0°C° 0 mm 3 mps 760 mmHg 57%
    11:00 +1°C° 0 mm 3 mps 759 mmHg 58%
    12:00 +2°C° 0 mm 3 mps 759 mmHg 60%
    13:00 +1°C° 0 mm 4 mps 759 mmHg 62%
    14:00 +3°C° 0 mm 4 mps 759 mmHg 64%
    15:00 +3°C° 0 mm 3 mps 759 mmHg 67%
    16:00 +3°C° 0 mm 3 mps 758 mmHg 69%
    17:00 +4°C° 0 mm 2 mps 758 mmHg 72%
    18:00 +3°C° 0 mm 2 mps 758 mmHg 78%
    19:00 +2°C° 0 mm 2 mps 759 mmHg 83%
    20:00 -1°C° 0 mm 2 mps 759 mmHg 88%
    21:00 -1°C° 0 mm 2 mps 759 mmHg 89%
    22:00 -1°C° 0 mm 2 mps 759 mmHg 90%
    23:00 -1°C° 0 mm 2 mps 758 mmHg 91%
    Show more